Location: �clusier
(49.9361°N, 2.7869°E)
Time: 08:07:27
(UTC+00:00)

Cosmos 1184 Rocket - Pass Details

Date: 16 June 2021
Orbit: 399 x 413 km, 81.2° (Epoch: 31 July)

Event Time Altitude Azimuth Distance (km) Brightness Sun altitude
Exits shadow 22:38:01 21° 112° (ESE) 1,011 4.3 -15.0°
Maximum altitude 22:38:43 22° 92° (E) 963 4.4 -15.0°
Drops below altitude 10° 22:41:20 10° 39° (NE) 1,504 6.0 -15.1°
Sets 22:43:38 0° 24° (NNE) 2,372 7.4 -15.2°
